Change the Weather History Date:

Saturday, January 5, 2013

  Actual Average Record
Temperature  
Mean Temperature 39 °F 33 °F  
Max Temperature 43 °F 40 °F 64 °F (1950)
Min Temperature 34 °F 27 °F 9 °F (1968)
Degree Days  
Heating Degree Days 26 32  
Month to date heating degree days 157 156  
Since 1 July heating degree days 1609 1762  
Cooling Degree Days 0 0  
Month to date cooling degree days 0 0  
Year to date cooling degree days 0 0  
Moisture  
Dew Point 19 °F    
Average Humidity 46    
Maximum Humidity 52    
Minimum Humidity 39    
Precipitation  
Precipitation 0.00 in 0.10 in 1.25 in (1993)
Month to date precipitation T 0.51  
Year to date precipitation T 0.51  
Snow  
Snow 0.00 in 0.30 in 2.20 in (1985)
Month to date snowfall 0.0 1.2  
Since 1 July snowfall 2.0 6.7  
Snow Depth 0.00 in    
Sea Level Pressure  
Sea Level Pressure 30.20 in    
Wind  
Wind Speed 10 mph (West)    
Max Wind Speed 28 mph    
Max Gust Speed 33 mph    
Visibility 10 miles    
Events      
T = Trace of Precipitation, MM = Missing Value Source: NWS Daily Summary

Daily Weather History Graph

Daily Weather History Graph

Search for Another Location

Airport or City:

Trip Planner

Search our weather history database for the weather conditions in past years. The results will help you decide how hot, cold, wet, or windy it might be!

Date:

Astronomy

Jan. 05, 2013 Rise Set
Actual Time 7:19 AM EST 4:42 PM EST
Civil Twilight 6:49 AM EST 5:13 PM EST
Nautical Twilight 6:14 AM EST 5:47 PM EST
Astronomical Twilight 5:41 AM EST 6:20 PM EST
Moon 12:22 AM EST (1/5) 11:31 AM EST (1/5)
Length of Visible Light 10h 23m
Length of Day
9h 22m
Last Quarter, 44% of the Moon is Illuminated
Jan 5
Last Quarter
Jan 11
New
Jan 18
First Quarter
Jan 26
Full
Feb 3
Last Quarter

Hourly Weather History & Observations

Time (EST) Temp. Windchill Dew Point Humidity Pressure Visibility Wind Dir Wind Speed Gust Speed Precip Events Conditions
12:51 AM 36.0 °F 28.5 °F 17.1 °F 46% 30.03 in 10.0 mi West 10.4 mph 19.6 mph N/A   Clear
1:51 AM 35.1 °F 25.9 °F 17.1 °F 48% 30.05 in 10.0 mi WNW 13.8 mph 23.0 mph N/A   Clear
2:51 AM 35.1 °F 25.9 °F 16.0 °F 46% 30.08 in 10.0 mi West 13.8 mph 23.0 mph N/A   Clear
3:51 AM 34.0 °F 26.0 °F 17.1 °F 50% 30.09 in 10.0 mi West 10.4 mph - N/A   Partly Cloudy
4:51 AM 33.8 °F 23.9 °F 17.6 °F 52% 30.11 in 10.0 mi West 15.0 mph 21.9 mph N/A   Mostly Cloudy
5:51 AM 34.0 °F 25.5 °F 17.1 °F 50% 30.14 in 10.0 mi West 11.5 mph 20.7 mph N/A   Overcast
6:51 AM 33.8 °F 25.3 °F 17.6 °F 52% 30.18 in 10.0 mi West 11.5 mph 21.9 mph N/A   Mostly Cloudy
7:51 AM 34.0 °F 25.5 °F 18.0 °F 52% 30.20 in 10.0 mi West 11.5 mph - N/A   Scattered Clouds
8:51 AM 35.6 °F 26.6 °F 19.4 °F 52% 30.24 in 10.0 mi West 13.8 mph - N/A   Partly Cloudy
9:51 AM 37.4 °F 31.4 °F 19.4 °F 48% 30.25 in 10.0 mi West 8.1 mph - N/A   Scattered Clouds
10:51 AM 39.9 °F 31.1 °F 21.0 °F 47% 30.26 in 10.0 mi NW 17.3 mph 27.6 mph N/A   Scattered Clouds
11:51 AM 41.0 °F 32.2 °F 21.0 °F 45% 30.25 in 10.0 mi NNW 18.4 mph 24.2 mph N/A   Scattered Clouds
12:51 PM 42.1 °F 35.2 °F 21.0 °F 43% 30.23 in 10.0 mi NNW 12.7 mph 20.7 mph N/A   Scattered Clouds
1:51 PM 43.0 °F 37.2 °F 21.9 °F 43% 30.23 in 10.0 mi NW 10.4 mph - N/A   Scattered Clouds
2:51 PM 43.0 °F 37.7 °F 19.9 °F 40% 30.24 in 10.0 mi NW 9.2 mph - N/A   Scattered Clouds
3:51 PM 43.0 °F 38.2 °F 19.0 °F 38% 30.23 in 10.0 mi West 8.1 mph - N/A   Partly Cloudy
4:51 PM 42.1 °F 38.4 °F 21.0 °F 43% 30.24 in 10.0 mi West 5.8 mph - N/A   Scattered Clouds
5:51 PM 41.0 °F 35.2 °F 19.4 °F 42% 30.26 in 10.0 mi West 9.2 mph - N/A   Scattered Clouds
6:51 PM 39.9 °F - 21.9 °F 49% 30.25 in 10.0 mi Calm Calm - N/A   Scattered Clouds
7:51 PM 39.9 °F 35.8 °F 21.0 °F 47% 30.26 in 10.0 mi SSW 5.8 mph - N/A   Scattered Clouds
8:51 PM 39.0 °F 36.8 °F 21.9 °F 50% 30.24 in 10.0 mi NW 3.5 mph - N/A   Scattered Clouds
9:51 PM 39.0 °F 33.4 °F 21.0 °F 49% 30.24 in 10.0 mi West 8.1 mph - N/A   Mostly Cloudy
10:51 PM 37.9 °F 35.5 °F 21.0 °F 51% 30.22 in 10.0 mi SW 3.5 mph - N/A   Mostly Cloudy
11:51 PM 37.9 °F 33.5 °F 21.0 °F 51% 30.20 in 10.0 mi SW 5.8 mph - N/A   Mostly Cloudy